| time (UTC) | temp F | wind direction | speed MPH | gust MPH | rain 1hr in | rain 24hr in | rain mn in | humidity % | barometer mb |
| 20260905233505 | 58 | 207 | 8.0 | 11.0 | 0.00 | 0.00 | 0.00 | 1023.0 | |
| 20260905230506 | 58 | 207 | 8.0 | 11.0 | 0.00 | 0.00 | 0.00 | 1023.0 | |
| 20260905223505 | 58 | 221 | 9.0 | 12.0 | 0.00 | 0.00 | 0.00 | 1023.0 | |
| 20260905220505 | 58 | 221 | 9.0 | 12.0 | 0.00 | 0.00 | 0.00 | 1023.0 | |
| 20260905213505 | 59 | 237 | 11.0 | 14.0 | 0.00 | 0.00 | 0.00 | 1024.0 | |
| 20260905210505 | 59 | 237 | 11.0 | 14.0 | 0.00 | 0.00 | 0.00 | 1024.0 | |
| 20260905203505 | 59 | 244 | 13.0 | 17.0 | 0.00 | 0.00 | 0.00 | 1024.0 | |
| 20260905200505 | 59 | 244 | 13.0 | 17.0 | 0.00 | 0.00 | 0.00 | 1024.0 | |
| 20260905193505 | 60 | 247 | 14.0 | 18.0 | 0.00 | 0.00 | 0.00 | 1023.0 | |
| 20260905190505 | 60 | 247 | 14.0 | 18.0 | 0.00 | 0.00 | 0.00 | 1023.0 | |
| 20260905183506 | 60 | 253 | 15.0 | 19.0 | 0.00 | 0.00 | 0.00 | 1023.0 | |
| 20260905180506 | 60 | 252 | 14.0 | 18.0 | 0.00 | 0.00 | 0.00 | 1023.0 | |
| 20260905173506 | 61 | 252 | 16.0 | 21.0 | 0.00 | 0.00 | 0.00 | 1022.0 | |
| 20260905170506 | 61 | 252 | 16.0 | 21.0 | 0.00 | 0.00 | 0.00 | 1022.0 | |
| 20260905163506 | 61 | 252 | 17.0 | 22.0 | 0.00 | 0.00 | 0.00 | 1022.0 | |
| 20260905160506 | 61 | 252 | 17.0 | 22.0 | 0.00 | 0.00 | 0.00 | 1022.0 | |
| 20260905153505 | 61 | 258 | 17.0 | 22.0 | 0.00 | 0.00 | 0.00 | 1021.0 | |
| 20260905150506 | 61 | 258 | 17.0 | 22.0 | 0.00 | 0.00 | 0.00 | 1021.0 | |
| 20260905143505 | 61 | 260 | 18.0 | 23.0 | 0.00 | 0.00 | 0.00 | 1021.0 | |
| 20260905140505 | 61 | 260 | 18.0 | 23.0 | 0.00 | 0.00 | 0.00 | 1021.0 | |
| 20260905133505 | 61 | 261 | 19.0 | 24.0 | 0.00 | 0.00 | 0.00 | 1021.0 | |
| 20260905130505 | 61 | 261 | 19.0 | 24.0 | 0.00 | 0.00 | 0.00 | 1021.0 | |
| 20260905123505 | 60 | 262 | 19.0 | 25.0 | 0.00 | 0.00 | 0.00 | 1021.0 | |
| 20260905120505 | 60 | 260 | 18.0 | 23.0 | 0.00 | 0.00 | 0.00 | 1020.0 | |
| 20260905113505 | 59 | 260 | 19.0 | 24.0 | 0.00 | 0.00 | 0.00 | 1020.0 | |
| 20260905110505 | 59 | 260 | 19.0 | 24.0 | 0.00 | 0.00 | 0.00 | 1020.0 | |
| 20260905103506 | 58 | 256 | 19.0 | 26.0 | 0.00 | 0.00 | 0.00 | 1019.0 | |
| 20260905100505 | 58 | 256 | 19.0 | 26.0 | 0.00 | 0.00 | 0.00 | 1019.0 | |
| 20260905093506 | 57 | 255 | 20.0 | 27.0 | 0.00 | 0.00 | 0.00 | 1019.0 | |
| 20260905090506 | 57 | 255 | 20.0 | 27.0 | 0.00 | 0.06 | 0.00 | 1019.0 | |
| 20260905083506 | 56 | 255 | 20.0 | 27.0 | 0.00 | 0.06 | 0.00 | 1018.0 | |
| 20260905080506 | 56 | 255 | 20.0 | 27.0 | 0.00 | 0.06 | 0.00 | 1018.0 | |
| 20260905073506 | 55 | 255 | 20.0 | 27.0 | 0.00 | 0.06 | 0.00 | 1017.0 | |
| 20260905070506 | 55 | 255 | 20.0 | 27.0 | 0.00 | 0.06 | 0.00 | 1017.0 | |
| 20260905063505 | 55 | 256 | 20.0 | 28.0 | 0.00 | 0.06 | 0.00 | 1016.0 | |
| 20260905060506 | 55 | 253 | 20.0 | 28.0 | 0.00 | 0.06 | 0.00 | 1016.0 | |
| 20260905053505 | 55 | 254 | 20.0 | 28.0 | 0.00 | 0.06 | 0.00 | 1015.0 | |
| 20260905050505 | 55 | 254 | 20.0 | 28.0 | 0.00 | 0.06 | 0.00 | 1015.0 | |
| 20260905043505 | 55 | 256 | 21.0 | 28.0 | 0.00 | 0.06 | 0.00 | 1014.0 | |
| 20260905040505 | 55 | 256 | 21.0 | 28.0 | 0.00 | 0.06 | 0.00 | 1014.0 | |
| 20260905033506 | 55 | 259 | 21.0 | 29.0 | 0.00 | 0.06 | 0.00 | 1014.0 | |
| 20260905030505 | 55 | 259 | 21.0 | 29.0 | 0.00 | 0.06 | 0.00 | 1013.0 | |
| 20260905023506 | 56 | 259 | 22.0 | 30.0 | 0.00 | 0.06 | 0.00 | 1013.0 | |
| 20260905020506 | 56 | 259 | 22.0 | 30.0 | 0.00 | 0.06 | 0.00 | 1013.0 | |
| 20260905013506 | 56 | 256 | 23.0 | 32.0 | 0.00 | 0.06 | 0.00 | 1012.0 | |
| 20260905010506 | 56 | 256 | 23.0 | 32.0 | 0.00 | 0.06 | 0.00 | 1012.0 | |
| 20260905003506 | 57 | 255 | 24.0 | 33.0 | 0.00 | 0.06 | 0.00 | 1011.0 | |
| 20260905000506 | 57 | 252 | 23.0 | 32.0 | 0.00 | 0.06 | 0.00 | 1011.0 |